Tracking 22458 objects as of 4-Mar-2021
HD Live streaming from Space Station
objects crossing your sky now

SL-14 R/B

Track SL-14 R/B now!
10-day predictions


NORAD ID: 17296
Int'l Code: 1987-003B
Perigee: 611.7 km
Apogee: 640.3 km
Inclination: 82.5 °
Period: 97.1 minutes
Semi major axis: 6996 km
RCS: 4.4495 m2 (large)
Launch date: January 14, 1987
Source: Commonwealth of Independent States (former USSR) (CIS)
Launch site: PLESETSK MISSILE AND SPACE COMPLEX (PKMTR)

Note: This is a ROCKET BODY
aabbcc
Your satellite tracking list
Your tracking list is empty




NASA's NSSDC Master Catalog

Two Line Element Set (TLE):
1 17296U 87003B   21063.12333718  .00000126  00000-0  12324-4 0  9998
2 17296  82.5314 196.6668 0020487  72.2388 288.1060 14.83323035844118
Source of the keplerian elements: AFSPC